RH
84 96 99 96 56 97 51 47 89 60 30 49 45 54 73 93 89 42 31 29 26 25 22 22 22 23 24 26 27 29 30 33 38 45 52 54 49 44
83 57 58 100 67 96 75 72 52 54 78 90 47 69 48 78 100 95 49 36 34 30 28 23 24 24 26 27 29 31 32 34 37 46 51 52 48 46
69 65 64 63 63 75 81 88 85 98 92 93 56 97 81 65 87 100 98 49 41 40 37 32 29 31 30 31 31 32 35 36 43 49 52 50 47 48
90 65 76 88 87 76 78 86 100 100 98 82 89 71 87 75 91 92 100 100 81 48 41 43 43 38 36 37 39 37 38 44 50 50 50 46 49 52
60 98 93 65 97 91 100 88 97 100 84 96 99 75 90 91 80 100 100 100 98 75 51 44 43 43 45 44 48 46 47 51 49 50 47 49 50 55
88 83 85 74 76 73 86 93 100 98 96 78 71 99 95 95 99 98 97 99 96 97 82 65 59 51 44 44 50 49 51 50 50 49 48 50 52 64
96 94 83 67 71 71 67 80 91 98 98 90 86 96 95 88 84 91 95 96 99 99 97 82 73 66 52 48 46 50 48 54 52 48 52 52 60 75
100 100 88 84 79 81 77 97 98 99 100 99 98 81 81 100 99 99 100 98 98 87 99 98 98 87 70 58 56 55 59 59 50 51 54 56 71 85
99 100 96 85 84 83 93 98 99 100 100 98 95 88 78 99 94 98 98 94 99 99 98 98 95 88 79 68 60 54 60 61 56 56 56 64 84 91
100 99 96 89 87 90 98 100 100 100 100 99 98 99 97 100 99 99 99 99 99 99 98 98 98 91 93 77 62 58 62 62 62 62 73 88 93 94
98 95 83 92 89 85 95 99 99 100 100 100 99 99 99 98 98 99 99 100 99 98 98 98 98 97 96 85 72 62 68 75 74 89 90 93 96 95
91 78 94 91 85 93 89 95 92 94 97 99 99 99 99 99 98 98 98 99 99 98 98 98 98 98 97 92 70 70 85 94 94 96 93 97 95 93
79 88 92 89 90 97 98 98 100 94 80 92 100 99 98 98 98 98 98 97 98 98 98 98 98 97 98 93 93 95 96 96 92 96 96 96 96 94
65 65 95 92 91 95 88 83 82 79 87 88 96 98 98 98 99 99 98 97 98 98 98 98 98 97 96 96 96 96 97 96 97 96 96 96 96 95
61 71 86 81 94 83 87 81 69 72 80 94 100 97 98 98 98 98 97 97 98 98 97 97 96 96 96 96 96 97 97 96 95 96 95 96 96 78
75 83 89 90 88 91 98 82 79 80 86 94 97 97 98 97 98 98 98 98 98 98 97 97 96 92 96 97 97 96 96 96 95 95 96 97 59 31
44 90 99 80 92 100 100 85 85 95 96 97 98 98 95 94 98 99 98 97 97 97 92 96 97 97 96 96 96 96 96 96 97 97 91 68 29 18
53 85 92 94 94 96 97 99 98 97 98 97 100 97 95 92 95 96 96 96 97 97 97 97 97 96 96 96 96 96 96 96 94 80 49 31 20 14
23 66 95 100 98 95 95 90 93 95 95 97 97 95 99 100 97 97 97 97 97 97 96 96 96 96 96 96 96 96 96 94 77 46 27 17 17 17
15 34 75 96 98 96 97 95 93 94 93 90 87 88 95 99 99 98 97 97 96 96 96 96 96 95 95 97 96 96 93 63 38 22 15 15 17 22
44 20 60 68 65 72 84 86 85 85 94 90 90 90 91 95 97 98 97 96 96 96 96 96 95 97 95 97 95 87 49 28 17 16 16 18 23 27
24 69 88 68 46 58 71 86 93 96 94 94 97 98 97 98 98 96 95 96 96 95 96 96 96 97 96 94 72 37 18 18 16 15 18 23 32 51
80 98 68 44 41 73 91 94 95 98 96 95 95 96 96 96 97 99 98 97 96 96 95 95 96 96 82 36 21 18 17 16 17 19 24 42 47 37
Wind_Speed
39 31 37 40 38 38 37 40 30 40 39 36 35 35 35 36 38 37 35 34 39 39 38 39 40 39 36 38 37 35 34 34 32 32 31 31 32 32
38 39 36 34 34 38 37 36 35 36 36 40 34 32 36 39 34 41 38 37 38 41 41 41 41 40 39 39 39 37 36 34 34 33 32 32 32 32
36 37 36 36 38 37 37 34 35 35 40 39 36 37 37 37 38 36 39 40 41 38 39 42 42 41 39 39 39 39 36 35 34 33 33 32 33 32
36 34 36 37 36 37 37 37 36 42 42 40 40 37 42 40 39 38 37 37 41 40 37 38 42 41 41 40 38 38 37 35 34 33 33 34 33 32
39 42 39 38 34 37 36 40 34 41 42 41 40 43 43 39 39 36 42 41 39 40 39 36 34 38 40 41 39 37 36 34 34 35 35 34 34 33
38 39 39 40 41 41 41 42 43 43 43 42 47 46 43 46 43 43 43 46 46 40 41 42 37 36 36 37 36 35 33 34 36 35 36 34 34 35
39 42 42 41 41 43 45 46 44 45 47 45 44 48 51 45 46 42 42 42 47 48 42 42 43 41 38 35 35 33 35 35 35 37 36 35 35 37
37 37 36 38 41 42 40 38 42 50 53 50 47 54 49 55 51 46 50 47 49 46 44 45 42 36 35 36 36 37 36 34 37 38 36 36 38 41
33 35 33 33 33 36 37 37 42 47 47 46 49 48 48 42 47 48 49 45 46 51 48 40 37 38 36 39 39 40 36 35 38 38 37 38 42 46
28 31 32 32 33 34 34 40 42 42 52 51 50 52 49 46 42 43 38 42 49 52 48 48 40 33 34 39 39 35 35 37 38 38 38 43 47 49
31 33 29 31 31 29 28 30 37 38 39 43 46 49 50 46 41 42 40 41 47 47 39 40 37 31 32 36 36 35 36 35 37 40 44 48 51 50
32 31 30 30 28 27 29 29 32 34 37 43 48 52 51 50 46 38 43 47 45 46 45 45 32 33 33 32 32 32 34 38 43 46 48 49 48 47
33 30 31 30 28 26 30 32 35 39 41 34 34 38 41 36 30 39 41 42 43 44 39 38 33 30 34 32 34 38 42 46 47 47 46 46 44 43
29 29 27 28 27 25 28 26 25 25 25 28 25 29 25 28 33 34 32 34 35 35 36 34 30 29 32 35 42 43 44 47 45 46 44 42 40 39
29 29 32 29 28 25 26 24 19 21 21 17 20 24 26 31 36 33 34 28 32 27 28 27 31 35 39 40 42 44 43 43 44 41 39 37 35 33
23 25 24 25 23 24 24 22 18 17 21 21 21 20 22 22 19 24 31 34 34 26 27 35 36 36 40 41 41 41 41 41 37 36 37 33 30 33
23 24 25 23 20 24 24 21 20 19 23 25 26 23 20 20 18 18 21 22 26 32 35 36 39 40 39 38 39 40 39 34 34 34 34 31 30 34
20 21 19 19 18 19 23 25 29 29 27 26 26 27 25 22 21 22 26 29 32 34 36 38 38 37 37 38 37 34 33 32 33 31 33 35 31 32
22 20 17 15 14 13 10 15 21 26 27 23 21 23 27 30 29 28 29 32 34 34 34 35 35 35 34 32 30 30 31 31 29 30 34 37 36 34
26 24 22 21 20 19 17 17 15 15 19 21 21 22 24 26 29 31 32 32 31 31 32 32 31 30 29 27 27 27 28 29 31 32 33 36 38 39
28 26 23 23 24 26 25 27 26 24 23 22 22 22 23 24 25 25 26 27 28 27 27 28 27 25 26 25 24 24 28 31 33 33 34 37 39 40
27 20 23 22 20 20 20 21 18 18 20 21 21 22 23 23 23 24 24 24 25 26 26 26 24 24 24 23 23 24 28 32 34 34 36 40 45 49
21 24 24 23 22 21 19 19 19 18 20 21 20 20 20 20 21 22 23 24 25 25 24 24 23 23 21 23 24 27 28 31 33 34 32 39 43 46
Wind_Direction
237 237 239 237 245 247 256 254 257 257 261 260 258 258 262 262 261 260 257 257 257 252 252 256 259 260 260 262 265 267 269 272 275 278 282 287 292 297
238 239 239 236 243 247 255 259 258 261 257 260 262 264 261 256 267 263 263 260 257 255 252 251 254 257 259 261 265 267 268 271 274 277 280 285 291 295
236 238 236 241 246 245 255 249 256 253 261 269 266 262 262 260 259 273 266 264 261 261 259 256 255 254 256 260 264 267 269 271 273 275 279 284 288 293
239 242 236 240 244 248 248 250 245 252 258 266 267 265 265 264 256 255 271 264 263 266 262 260 259 260 260 259 261 265 268 269 271 275 280 281 287 293
232 235 242 243 249 249 256 253 252 256 256 254 265 265 266 271 265 259 268 270 262 256 261 262 266 265 263 262 263 265 266 267 269 271 276 282 287 291
235 238 241 243 247 250 252 255 254 257 258 252 262 262 260 266 261 266 259 265 268 262 259 265 266 268 267 265 260 260 263 266 268 273 277 281 286 293
238 238 244 249 250 255 259 258 258 258 261 253 252 258 254 263 262 269 257 273 263 264 255 258 257 260 261 259 261 262 265 263 271 274 277 281 285 292
233 241 247 249 253 258 263 258 261 256 255 256 255 258 259 263 262 265 264 260 264 266 257 254 256 259 259 259 260 262 263 268 271 274 276 278 285 293
248 246 256 257 260 262 260 259 258 252 255 258 260 262 260 268 265 258 265 257 265 270 258 251 251 251 256 258 260 263 266 267 271 273 275 280 286 292
247 252 258 257 265 267 263 257 261 262 249 249 256 261 259 262 257 267 269 265 259 264 255 248 256 253 251 255 261 268 267 267 269 271 277 281 285 287
253 255 262 259 269 268 258 260 261 258 248 252 255 257 260 254 254 254 252 258 261 255 247 250 238 251 252 260 263 264 266 269 269 273 274 279 285 289
257 253 257 258 263 261 263 262 263 261 259 257 254 253 255 251 247 252 268 264 256 243 249 251 248 242 258 261 264 265 263 266 272 274 277 285 287 287
252 247 256 261 269 266 266 261 262 262 262 259 258 250 247 241 251 254 259 257 244 248 252 246 247 254 251 261 266 267 271 272 274 277 283 284 285 285
245 249 254 261 264 264 260 257 259 264 251 255 253 238 247 259 259 254 246 248 246 247 242 243 241 259 272 271 269 271 273 275 280 281 283 283 285 284
244 247 254 264 260 268 255 257 261 266 265 270 266 258 256 260 256 248 248 242 233 243 258 246 259 266 270 270 270 272 278 279 282 283 283 282 280 280
246 250 255 258 263 263 253 254 250 258 262 265 263 261 255 256 248 246 247 247 237 236 250 267 271 273 273 269 271 277 280 282 282 281 279 278 279 281
257 246 256 265 266 258 253 248 240 242 266 270 263 258 258 250 245 242 236 234 244 261 268 271 272 268 268 273 278 280 279 279 278 277 278 277 279 283
246 247 258 258 257 255 249 247 248 255 265 264 252 247 250 248 250 252 254 257 262 265 264 265 267 269 274 278 277 277 277 276 276 277 280 282 284 288
246 242 245 247 235 231 243 254 251 250 252 241 240 247 244 247 251 257 259 259 261 265 265 266 270 274 276 276 277 275 274 274 275 279 282 286 292 293
246 242 236 238 239 243 244 254 258 255 244 241 241 238 239 241 248 255 257 258 261 264 267 270 272 273 275 274 274 271 270 276 279 282 285 290 295 298
242 247 241 245 250 254 256 261 267 263 248 238 238 241 241 244 248 250 252 258 264 266 269 269 271 271 270 270 268 271 279 280 283 287 291 295 297 297
249 246 252 257 255 256 258 259 256 248 246 251 249 246 246 247 248 251 254 259 262 264 266 266 265 265 266 266 270 275 278 285 291 297 303 304 305 306
245 250 257 262 254 249 252 253 252 249 248 247 249 247 246 245 248 253 257 260 261 260 259 261 263 262 267 273 277 280 285 288 292 298 304 304 303 303